Year,Month,Day,Hour,Minute,Value (Times are PST for temperature in C)
2003,09,02,00,00,16.30
2003,09,02,00,01,16.20
2003,09,02,00,02,16.20
2003,09,02,00,03,16.20
2003,09,02,00,04,16.10
2003,09,02,00,05,16.10
2003,09,02,00,06,16.10
2003,09,02,00,07,16.10
2003,09,02,00,08,16.10
2003,09,02,00,09,16.10
2003,09,02,00,10,16.10
2003,09,02,00,11,16.10
2003,09,02,00,12,16.10
2003,09,02,00,13,16.10
2003,09,02,00,14,16.10
2003,09,02,00,15,16.10
2003,09,02,00,16,16.00
2003,09,02,00,17,15.90
2003,09,02,00,18,15.90
2003,09,02,00,19,15.90
2003,09,02,00,20,15.80
2003,09,02,00,21,15.80
2003,09,02,00,22,15.80
2003,09,02,00,23,15.70
2003,09,02,00,24,15.70
2003,09,02,00,25,15.70
2003,09,02,00,26,15.70
2003,09,02,00,27,15.70
2003,09,02,00,28,15.70
2003,09,02,00,29,15.70
2003,09,02,00,30,15.80
2003,09,02,00,31,15.80
2003,09,02,00,32,15.80
2003,09,02,00,33,15.90
2003,09,02,00,34,15.90
2003,09,02,00,35,15.90
2003,09,02,00,36,15.90
2003,09,02,00,37,15.80
2003,09,02,00,38,15.80
2003,09,02,00,39,15.80
2003,09,02,00,40,15.80
2003,09,02,00,41,15.70
2003,09,02,00,42,15.60
2003,09,02,00,43,15.60
2003,09,02,00,44,15.60
2003,09,02,00,45,15.50
2003,09,02,00,46,15.50
2003,09,02,00,47,15.40
2003,09,02,00,48,15.40
2003,09,02,00,49,15.40
2003,09,02,00,50,15.50
2003,09,02,00,51,15.50
2003,09,02,00,52,15.50
2003,09,02,00,53,15.60
2003,09,02,00,54,15.60
2003,09,02,00,55,15.50
2003,09,02,00,56,15.50
2003,09,02,00,57,15.50
2003,09,02,00,58,15.50
2003,09,02,00,59,15.60
2003,09,02,01,00,15.60
2003,09,02,01,01,15.60
2003,09,02,01,02,15.50
2003,09,02,01,03,15.40
2003,09,02,01,04,15.30
2003,09,02,01,05,15.30
2003,09,02,01,06,15.30
2003,09,02,01,07,15.30
2003,09,02,01,08,15.30
2003,09,02,01,09,15.30
2003,09,02,01,10,15.20
2003,09,02,01,11,15.20
2003,09,02,01,12,15.30
2003,09,02,01,13,15.30
2003,09,02,01,14,15.40
2003,09,02,01,15,15.50
2003,09,02,01,16,15.50
2003,09,02,01,17,15.60
2003,09,02,01,18,15.60
2003,09,02,01,19,15.60
2003,09,02,01,20,15.60
2003,09,02,01,21,15.60
2003,09,02,01,22,15.70
2003,09,02,01,23,15.80
2003,09,02,01,24,15.80
2003,09,02,01,25,15.80
2003,09,02,01,26,15.80
2003,09,02,01,27,15.80
2003,09,02,01,28,15.80
2003,09,02,01,29,15.70
2003,09,02,01,30,15.60
2003,09,02,01,31,15.60
2003,09,02,01,32,15.60
2003,09,02,01,33,15.60
2003,09,02,01,34,15.60
2003,09,02,01,35,15.60
2003,09,02,01,36,15.50
2003,09,02,01,37,15.50
2003,09,02,01,38,15.40
2003,09,02,01,39,15.40
2003,09,02,01,40,15.30
2003,09,02,01,41,15.30
2003,09,02,01,42,15.30
2003,09,02,01,43,15.30
2003,09,02,01,44,15.30
2003,09,02,01,45,15.30
2003,09,02,01,46,15.30
2003,09,02,01,47,15.40
2003,09,02,01,48,15.50
2003,09,02,01,49,15.50
2003,09,02,01,50,15.60
2003,09,02,01,51,15.60
2003,09,02,01,52,15.60
2003,09,02,01,53,15.60
2003,09,02,01,54,15.60
2003,09,02,01,55,15.60
2003,09,02,01,56,15.60
2003,09,02,01,57,15.60
2003,09,02,01,58,15.70
2003,09,02,01,59,15.70
2003,09,02,02,00,15.70
2003,09,02,02,01,15.70
2003,09,02,02,02,15.70
2003,09,02,02,03,15.80
2003,09,02,02,04,15.80
2003,09,02,02,05,15.80
2003,09,02,02,06,15.80
2003,09,02,02,07,15.90
2003,09,02,02,08,15.90
2003,09,02,02,09,15.90
2003,09,02,02,10,15.90
2003,09,02,02,11,15.80
2003,09,02,02,12,15.80
2003,09,02,02,13,15.70
2003,09,02,02,14,15.70
2003,09,02,02,15,15.70
2003,09,02,02,16,15.60
2003,09,02,02,17,15.60
2003,09,02,02,18,15.60
2003,09,02,02,19,15.70
2003,09,02,02,20,15.70
2003,09,02,02,21,15.80
2003,09,02,02,22,15.80
2003,09,02,02,23,15.80
2003,09,02,02,24,15.80
2003,09,02,02,25,15.80
2003,09,02,02,26,15.80
2003,09,02,02,27,15.80
2003,09,02,02,28,15.80
2003,09,02,02,29,15.90
2003,09,02,02,30,15.90
2003,09,02,02,31,16.00
2003,09,02,02,32,16.00
2003,09,02,02,33,15.90
2003,09,02,02,34,15.90
2003,09,02,02,35,15.90
2003,09,02,02,36,15.90
2003,09,02,02,37,15.90
2003,09,02,02,38,15.90
2003,09,02,02,39,15.90
2003,09,02,02,40,15.90
2003,09,02,02,41,15.90
2003,09,02,02,42,16.00
2003,09,02,02,43,16.10
2003,09,02,02,44,16.10
2003,09,02,02,45,16.10
2003,09,02,02,46,16.10
2003,09,02,02,47,16.10
2003,09,02,02,48,16.10
2003,09,02,02,49,16.10
2003,09,02,02,50,16.20
2003,09,02,02,51,16.20
2003,09,02,02,52,16.30
2003,09,02,02,53,16.20
2003,09,02,02,54,16.20
2003,09,02,02,55,16.10
2003,09,02,02,56,16.10
2003,09,02,02,57,16.00
2003,09,02,02,58,15.90
2003,09,02,02,59,15.90
2003,09,02,03,00,15.80
2003,09,02,03,01,15.80
2003,09,02,03,02,15.80
2003,09,02,03,03,15.80
2003,09,02,03,04,15.70
2003,09,02,03,05,15.70
2003,09,02,03,06,15.60
2003,09,02,03,07,15.60
2003,09,02,03,08,15.60
2003,09,02,03,09,15.60
2003,09,02,03,10,15.60
2003,09,02,03,11,15.50
2003,09,02,03,12,15.40
2003,09,02,03,13,15.40
2003,09,02,03,14,15.30
2003,09,02,03,15,15.30
2003,09,02,03,16,15.20
2003,09,02,03,17,15.20
2003,09,02,03,18,15.10
2003,09,02,03,19,15.10
2003,09,02,03,20,15.00
2003,09,02,03,21,15.00
2003,09,02,03,22,15.00
2003,09,02,03,23,14.90
2003,09,02,03,24,14.90
2003,09,02,03,25,14.90
2003,09,02,03,26,14.80
2003,09,02,03,27,14.80
2003,09,02,03,28,14.80
2003,09,02,03,29,14.80
2003,09,02,03,30,14.80
2003,09,02,03,31,14.80
2003,09,02,03,32,14.70
2003,09,02,03,33,14.70
2003,09,02,03,34,14.70
2003,09,02,03,35,14.70
2003,09,02,03,36,14.70
2003,09,02,03,37,14.70
2003,09,02,03,38,14.70
2003,09,02,03,39,14.70
2003,09,02,03,40,14.70
2003,09,02,03,41,14.70
2003,09,02,03,42,14.70
2003,09,02,03,43,14.70
2003,09,02,03,44,14.80
2003,09,02,03,45,14.80
2003,09,02,03,46,14.80
2003,09,02,03,47,14.80
2003,09,02,03,48,14.70
2003,09,02,03,49,14.60
2003,09,02,03,50,14.60
2003,09,02,03,51,14.70
2003,09,02,03,52,14.70
2003,09,02,03,53,14.80
2003,09,02,03,54,14.80
2003,09,02,03,55,14.80
2003,09,02,03,56,14.80
2003,09,02,03,57,14.80
2003,09,02,03,58,14.80
2003,09,02,03,59,14.90
2003,09,02,04,00,14.90
2003,09,02,04,01,14.90
2003,09,02,04,02,14.90
2003,09,02,04,03,14.90
2003,09,02,04,04,14.90
2003,09,02,04,05,14.90
2003,09,02,04,06,14.90
2003,09,02,04,07,14.90
2003,09,02,04,08,14.90
2003,09,02,04,09,14.80
2003,09,02,04,10,14.70
2003,09,02,04,11,14.50
2003,09,02,04,12,14.50
2003,09,02,04,13,14.40
2003,09,02,04,14,14.30
2003,09,02,04,15,14.30
2003,09,02,04,16,14.30
2003,09,02,04,17,14.20
2003,09,02,04,18,14.20
2003,09,02,04,19,14.20
2003,09,02,04,20,14.20
2003,09,02,04,21,14.30
2003,09,02,04,22,14.30
2003,09,02,04,23,14.40
2003,09,02,04,24,14.40
2003,09,02,04,25,14.40
2003,09,02,04,26,14.40
2003,09,02,04,27,14.40
2003,09,02,04,28,14.30
2003,09,02,04,29,14.20
2003,09,02,04,30,14.20
2003,09,02,04,31,14.20
2003,09,02,04,32,14.10
2003,09,02,04,33,14.00
2003,09,02,04,34,13.90
2003,09,02,04,35,13.80
2003,09,02,04,36,13.80
2003,09,02,04,37,13.80
2003,09,02,04,38,13.80
2003,09,02,04,39,13.80
2003,09,02,04,40,13.80
2003,09,02,04,41,13.80
2003,09,02,04,42,13.80
2003,09,02,04,43,13.80
2003,09,02,04,44,13.90
2003,09,02,04,45,13.80
2003,09,02,04,46,13.80
2003,09,02,04,47,13.80
2003,09,02,04,48,13.80
2003,09,02,04,49,13.90
2003,09,02,04,50,13.90
2003,09,02,04,51,13.90
2003,09,02,04,52,14.00
2003,09,02,04,53,14.00
2003,09,02,04,54,14.00
2003,09,02,04,55,14.00
2003,09,02,04,56,14.00
2003,09,02,04,57,14.00
2003,09,02,04,58,14.00
2003,09,02,04,59,14.00
2003,09,02,05,00,14.00
2003,09,02,05,01,14.00
2003,09,02,05,02,14.00
2003,09,02,05,03,13.90
2003,09,02,05,04,14.00
2003,09,02,05,05,14.00
2003,09,02,05,06,14.00
2003,09,02,05,07,14.10
2003,09,02,05,08,14.10
2003,09,02,05,09,14.10
2003,09,02,05,10,14.20
2003,09,02,05,11,14.10
2003,09,02,05,12,14.20
2003,09,02,05,13,14.20
2003,09,02,05,14,14.20
2003,09,02,05,15,14.20
2003,09,02,05,16,14.20
2003,09,02,05,17,14.20
2003,09,02,05,18,14.20
2003,09,02,05,19,14.20
2003,09,02,05,20,14.20
2003,09,02,05,21,14.20
2003,09,02,05,22,14.20
2003,09,02,05,23,14.10
2003,09,02,05,24,14.00
2003,09,02,05,25,14.00
2003,09,02,05,26,13.90
2003,09,02,05,27,13.90
2003,09,02,05,28,13.90
2003,09,02,05,29,13.90
2003,09,02,05,30,13.90
2003,09,02,05,31,13.90
2003,09,02,05,32,13.80
2003,09,02,05,33,13.90
2003,09,02,05,34,13.90
2003,09,02,05,35,13.90
2003,09,02,05,36,14.00
2003,09,02,05,37,13.90
2003,09,02,05,38,13.90
2003,09,02,05,39,13.90
2003,09,02,05,40,13.70
2003,09,02,05,41,13.70
2003,09,02,05,42,13.70
2003,09,02,05,43,13.70
2003,09,02,05,44,13.80
2003,09,02,05,45,13.70
2003,09,02,05,46,13.70
2003,09,02,05,47,13.80
2003,09,02,05,48,13.80
2003,09,02,05,49,13.80
2003,09,02,05,50,13.80
2003,09,02,05,51,13.80
2003,09,02,05,52,13.80
2003,09,02,05,53,13.80
2003,09,02,05,54,13.80
2003,09,02,05,55,13.80
2003,09,02,05,56,13.90
2003,09,02,05,57,13.90
2003,09,02,05,58,13.90
2003,09,02,05,59,13.90
2003,09,02,06,00,13.90
2003,09,02,06,01,13.90
2003,09,02,06,02,13.90
2003,09,02,06,03,13.90
2003,09,02,06,04,13.80
2003,09,02,06,05,13.70
2003,09,02,06,06,13.70
2003,09,02,06,07,13.70
2003,09,02,06,08,13.70
2003,09,02,06,09,13.60
2003,09,02,06,10,13.70
2003,09,02,06,11,13.70
2003,09,02,06,12,13.70
2003,09,02,06,13,13.60
2003,09,02,06,14,13.60
2003,09,02,06,15,13.60
2003,09,02,06,16,13.50
2003,09,02,06,17,13.60
2003,09,02,06,18,13.60
2003,09,02,06,19,13.60
2003,09,02,06,20,13.50
2003,09,02,06,21,13.40
2003,09,02,06,22,13.30
2003,09,02,06,23,13.20
2003,09,02,06,24,13.20
2003,09,02,06,25,13.20
2003,09,02,06,26,13.20
2003,09,02,06,27,13.20
2003,09,02,06,28,13.10
2003,09,02,06,29,13.00
2003,09,02,06,30,12.90
2003,09,02,06,31,12.90
2003,09,02,06,32,13.00
2003,09,02,06,33,13.00
2003,09,02,06,34,13.00
2003,09,02,06,35,13.00
2003,09,02,06,36,13.00
2003,09,02,06,37,13.00
2003,09,02,06,38,13.00
2003,09,02,06,39,13.00
2003,09,02,06,40,13.00
2003,09,02,06,41,13.10
2003,09,02,06,42,13.20
2003,09,02,06,43,13.20
2003,09,02,06,44,13.20
2003,09,02,06,45,13.20
2003,09,02,06,46,13.20
2003,09,02,06,47,13.30
2003,09,02,06,48,13.30
2003,09,02,06,49,13.20
2003,09,02,06,50,13.10
2003,09,02,06,51,13.10
2003,09,02,06,52,13.20
2003,09,02,06,53,13.30
2003,09,02,06,54,13.30
2003,09,02,06,55,13.30
2003,09,02,06,56,13.30
2003,09,02,06,57,13.30
2003,09,02,06,58,13.30
2003,09,02,06,59,13.20
2003,09,02,07,00,13.30
2003,09,02,07,01,13.30
2003,09,02,07,02,13.40
2003,09,02,07,03,13.50
2003,09,02,07,04,13.50
2003,09,02,07,05,13.60
2003,09,02,07,06,13.70
2003,09,02,07,07,13.70
2003,09,02,07,08,13.70
2003,09,02,07,09,13.80
2003,09,02,07,10,13.90
2003,09,02,07,11,14.00
2003,09,02,07,12,14.10
2003,09,02,07,13,14.20
2003,09,02,07,14,14.40
2003,09,02,07,15,14.50
2003,09,02,07,16,14.60
2003,09,02,07,17,14.80
2003,09,02,07,18,14.90
2003,09,02,07,19,15.00
2003,09,02,07,20,15.10
2003,09,02,07,21,15.20
2003,09,02,07,22,15.20
2003,09,02,07,23,15.10
2003,09,02,07,24,15.20
2003,09,02,07,25,15.30
2003,09,02,07,26,15.30
2003,09,02,07,27,15.40
2003,09,02,07,28,15.50
2003,09,02,07,29,15.60
2003,09,02,07,30,15.60
2003,09,02,07,31,15.60
2003,09,02,07,32,15.70
2003,09,02,07,33,15.80
2003,09,02,07,34,15.90
2003,09,02,07,35,15.90
2003,09,02,07,36,15.90
2003,09,02,07,37,15.90
2003,09,02,07,38,16.10
2003,09,02,07,39,16.20
2003,09,02,07,40,16.30
2003,09,02,07,41,16.40
2003,09,02,07,42,16.50
2003,09,02,07,43,16.70
2003,09,02,07,44,16.80
2003,09,02,07,45,16.90
2003,09,02,07,46,17.00
2003,09,02,07,47,17.00
2003,09,02,07,48,17.10
2003,09,02,07,49,17.20
2003,09,02,07,50,17.30
2003,09,02,07,51,17.40
2003,09,02,07,52,17.40
2003,09,02,07,53,17.50
2003,09,02,07,54,17.60
2003,09,02,07,55,17.70
2003,09,02,07,56,17.80
2003,09,02,07,57,17.90
2003,09,02,07,58,17.90
2003,09,02,07,59,18.10
2003,09,02,08,00,18.10
2003,09,02,08,01,18.20
2003,09,02,08,02,18.30
2003,09,02,08,03,18.40
2003,09,02,08,04,18.50
2003,09,02,08,05,18.50
2003,09,02,08,06,18.50
2003,09,02,08,07,18.60
2003,09,02,08,08,18.60
2003,09,02,08,09,18.70
2003,09,02,08,10,18.70
2003,09,02,08,11,18.70
2003,09,02,08,12,18.70
2003,09,02,08,13,18.70
2003,09,02,08,14,18.70
2003,09,02,08,15,18.70
2003,09,02,08,16,18.60
2003,09,02,08,17,18.60
2003,09,02,08,18,18.60
2003,09,02,08,19,18.70
2003,09,02,08,20,18.80
2003,09,02,08,21,18.90
2003,09,02,08,22,18.90
2003,09,02,08,23,19.00
2003,09,02,08,24,19.10
2003,09,02,08,25,19.30
2003,09,02,08,26,19.30
2003,09,02,08,27,19.40
2003,09,02,08,28,19.40
2003,09,02,08,29,19.40
2003,09,02,08,30,19.50
2003,09,02,08,31,19.60
2003,09,02,08,32,19.70
2003,09,02,08,33,19.80
2003,09,02,08,34,19.90
2003,09,02,08,35,19.90
2003,09,02,08,36,19.90
2003,09,02,08,37,20.00
2003,09,02,08,38,20.20
2003,09,02,08,39,20.20
2003,09,02,08,40,20.20
2003,09,02,08,41,20.20
2003,09,02,08,42,20.20
2003,09,02,08,43,20.20
2003,09,02,08,44,20.20
2003,09,02,08,45,20.20
2003,09,02,08,46,20.20
2003,09,02,08,47,20.20
2003,09,02,08,48,20.20
2003,09,02,08,49,20.20
2003,09,02,08,50,20.20
2003,09,02,08,51,20.20
2003,09,02,08,52,20.20
2003,09,02,08,53,20.20
2003,09,02,08,54,20.30
2003,09,02,08,55,20.40
2003,09,02,08,56,20.50
2003,09,02,08,57,20.60
2003,09,02,08,58,20.60
2003,09,02,08,59,20.60
2003,09,02,09,00,20.70
2003,09,02,09,01,20.90
2003,09,02,09,02,21.00
2003,09,02,09,03,21.20
2003,09,02,09,04,21.20
2003,09,02,09,05,21.30
2003,09,02,09,06,21.30
2003,09,02,09,07,21.30
2003,09,02,09,08,21.30
2003,09,02,09,09,21.30
2003,09,02,09,10,21.30
2003,09,02,09,11,21.30
2003,09,02,09,12,21.40
2003,09,02,09,13,21.50
2003,09,02,09,14,21.60
2003,09,02,09,15,21.60
2003,09,02,09,16,21.70
2003,09,02,09,17,21.80
2003,09,02,09,18,21.80
2003,09,02,09,19,21.90
2003,09,02,09,20,21.90
2003,09,02,09,21,21.60
2003,09,02,09,22,21.40
2003,09,02,09,23,21.10
2003,09,02,09,24,21.10
2003,09,02,09,25,21.10
2003,09,02,09,26,21.20
2003,09,02,09,27,21.20
2003,09,02,09,28,21.30
2003,09,02,09,29,21.30
2003,09,02,09,30,21.30
2003,09,02,09,31,21.30
2003,09,02,09,32,21.20
2003,09,02,09,33,21.20
2003,09,02,09,34,21.20
2003,09,02,09,35,21.20
2003,09,02,09,36,21.20
2003,09,02,09,37,21.20
2003,09,02,09,38,21.20
2003,09,02,09,39,21.30
2003,09,02,09,40,21.30
2003,09,02,09,41,21.40
2003,09,02,09,42,21.40
2003,09,02,09,43,21.50
2003,09,02,09,44,21.60
2003,09,02,09,45,21.60
2003,09,02,09,46,21.60
2003,09,02,09,47,21.60
2003,09,02,09,48,21.60
2003,09,02,09,49,21.60
2003,09,02,09,50,21.60
2003,09,02,09,51,21.50
2003,09,02,09,52,21.50
2003,09,02,09,53,21.40
2003,09,02,09,54,21.50
2003,09,02,09,55,21.40
2003,09,02,09,56,21.40
2003,09,02,09,57,21.40
2003,09,02,09,58,21.40
2003,09,02,09,59,21.40
2003,09,02,10,00,21.50
2003,09,02,10,01,21.40
2003,09,02,10,02,21.40
2003,09,02,10,03,21.40
2003,09,02,10,04,21.40
2003,09,02,10,05,21.50
2003,09,02,10,06,21.50
2003,09,02,10,07,21.50
2003,09,02,10,08,21.60
2003,09,02,10,09,21.60
2003,09,02,10,10,21.60
2003,09,02,10,11,21.60
2003,09,02,10,12,21.50
2003,09,02,10,13,21.40
2003,09,02,10,14,21.40
2003,09,02,10,15,21.40
2003,09,02,10,16,21.50
2003,09,02,10,17,21.40
2003,09,02,10,18,21.40
2003,09,02,10,19,21.40
2003,09,02,10,20,21.40
2003,09,02,10,21,21.40
2003,09,02,10,22,21.40
2003,09,02,10,23,21.40
2003,09,02,10,24,21.40
2003,09,02,10,25,21.50
2003,09,02,10,26,21.60
2003,09,02,10,27,21.60
2003,09,02,10,28,21.50
2003,09,02,10,29,21.60
2003,09,02,10,30,21.60
2003,09,02,10,31,21.60
2003,09,02,10,32,21.60
2003,09,02,10,33,21.60
2003,09,02,10,34,21.60
2003,09,02,10,35,21.60
2003,09,02,10,36,21.60
2003,09,02,10,37,21.60
2003,09,02,10,38,21.60
2003,09,02,10,39,21.60
2003,09,02,10,40,21.60
2003,09,02,10,41,21.60
2003,09,02,10,42,21.60
2003,09,02,10,43,21.60
2003,09,02,10,44,21.70
2003,09,02,10,45,21.80
2003,09,02,10,46,21.80
2003,09,02,10,47,21.90
2003,09,02,10,48,21.90
2003,09,02,10,49,21.80
2003,09,02,10,50,21.80
2003,09,02,10,51,21.90
2003,09,02,10,52,21.90
2003,09,02,10,53,21.90
2003,09,02,10,54,21.90
2003,09,02,10,55,21.90
2003,09,02,10,56,21.90
2003,09,02,10,57,21.80
2003,09,02,10,58,21.80
2003,09,02,10,59,21.80
2003,09,02,11,00,21.70
2003,09,02,11,01,21.80
2003,09,02,11,02,21.90
2003,09,02,11,03,22.00
2003,09,02,11,04,22.10
2003,09,02,11,05,22.00
2003,09,02,11,06,22.00
2003,09,02,11,07,22.00
2003,09,02,11,08,22.00
2003,09,02,11,09,22.00
2003,09,02,11,10,22.00
2003,09,02,11,11,22.00
2003,09,02,11,12,22.00
2003,09,02,11,13,22.00
2003,09,02,11,14,22.00
2003,09,02,11,15,22.10
2003,09,02,11,16,22.10
2003,09,02,11,17,22.00
2003,09,02,11,18,22.00
2003,09,02,11,19,22.00
2003,09,02,11,20,22.10
2003,09,02,11,21,22.00
2003,09,02,11,22,22.00
2003,09,02,11,23,22.10
2003,09,02,11,24,22.20
2003,09,02,11,25,22.40
2003,09,02,11,26,22.50
2003,09,02,11,27,22.50
2003,09,02,11,28,22.60
2003,09,02,11,29,22.60
2003,09,02,11,30,22.60
2003,09,02,11,31,22.60
2003,09,02,11,32,22.70
2003,09,02,11,33,22.80
2003,09,02,11,34,22.80
2003,09,02,11,35,22.90
2003,09,02,11,36,23.00
2003,09,02,11,37,22.90
2003,09,02,11,38,22.90
2003,09,02,11,39,22.90
2003,09,02,11,40,22.90
2003,09,02,11,41,22.90
2003,09,02,11,42,22.90
2003,09,02,11,43,22.90
2003,09,02,11,44,23.00
2003,09,02,11,45,23.10
2003,09,02,11,46,23.10
2003,09,02,11,47,23.10
2003,09,02,11,48,23.10
2003,09,02,11,49,23.00
2003,09,02,11,50,22.90
2003,09,02,11,51,22.90
2003,09,02,11,52,22.90
2003,09,02,11,53,23.00
2003,09,02,11,54,23.10
2003,09,02,11,55,23.10
2003,09,02,11,56,23.10
2003,09,02,11,57,23.20
2003,09,02,11,58,23.30
2003,09,02,11,59,23.20
2003,09,02,12,00,23.20
2003,09,02,12,01,23.10
2003,09,02,12,02,23.00
2003,09,02,12,03,23.10
2003,09,02,12,04,23.20
2003,09,02,12,05,23.30
2003,09,02,12,06,23.30
2003,09,02,12,07,23.30
2003,09,02,12,08,23.30
2003,09,02,12,09,23.40
2003,09,02,12,10,23.40
2003,09,02,12,11,23.40
2003,09,02,12,12,23.40
2003,09,02,12,13,23.40
2003,09,02,12,14,23.40
2003,09,02,12,15,23.40
2003,09,02,12,16,23.50
2003,09,02,12,17,23.50
2003,09,02,12,18,23.60
2003,09,02,12,19,23.70
2003,09,02,12,20,23.60
2003,09,02,12,21,23.70
2003,09,02,12,22,23.70
2003,09,02,12,23,23.80
2003,09,02,12,24,23.80
2003,09,02,12,25,23.90
2003,09,02,12,26,23.80
2003,09,02,12,27,23.90
2003,09,02,12,28,24.00
2003,09,02,12,29,24.00
2003,09,02,12,30,24.00
2003,09,02,12,31,24.10
2003,09,02,12,32,24.10
2003,09,02,12,33,24.20
2003,09,02,12,34,24.20
2003,09,02,12,35,24.20
2003,09,02,12,36,24.20
2003,09,02,12,37,24.20
2003,09,02,12,38,24.20
2003,09,02,12,39,24.20
2003,09,02,12,40,24.20
2003,09,02,12,41,24.10
2003,09,02,12,42,24.10
2003,09,02,12,43,24.10
2003,09,02,12,44,24.20
2003,09,02,12,45,24.20
2003,09,02,12,46,24.30
2003,09,02,12,47,24.40
2003,09,02,12,48,24.40
2003,09,02,12,49,24.50
2003,09,02,12,50,24.50
2003,09,02,12,51,24.60
2003,09,02,12,52,24.60
2003,09,02,12,53,24.60
2003,09,02,12,54,24.60
2003,09,02,12,55,24.70
2003,09,02,12,56,24.70
2003,09,02,12,57,24.80
2003,09,02,12,58,24.80
2003,09,02,12,59,24.90
2003,09,02,13,00,25.10
2003,09,02,13,01,25.20
2003,09,02,13,02,25.20
2003,09,02,13,03,25.20
2003,09,02,13,04,25.10
2003,09,02,13,05,25.20
2003,09,02,13,06,25.20
2003,09,02,13,07,25.10
2003,09,02,13,08,25.10
2003,09,02,13,09,25.10
2003,09,02,13,10,25.10
2003,09,02,13,11,25.00
2003,09,02,13,12,25.00
2003,09,02,13,13,25.00
2003,09,02,13,14,25.00
2003,09,02,13,15,24.90
2003,09,02,13,16,24.90
2003,09,02,13,17,24.90
2003,09,02,13,18,24.90
2003,09,02,13,19,24.90
2003,09,02,13,20,24.90
2003,09,02,13,21,24.90
2003,09,02,13,22,24.90
2003,09,02,13,23,25.00
2003,09,02,13,24,25.00
2003,09,02,13,25,25.00
2003,09,02,13,26,25.00
2003,09,02,13,27,25.20
2003,09,02,13,28,25.20
2003,09,02,13,29,25.30
2003,09,02,13,30,25.40
2003,09,02,13,31,25.40
2003,09,02,13,32,25.40
2003,09,02,13,33,25.40
2003,09,02,13,34,25.40
2003,09,02,13,35,25.50
2003,09,02,13,36,25.40
2003,09,02,13,37,25.30
2003,09,02,13,38,25.30
2003,09,02,13,39,25.40
2003,09,02,13,40,25.40
2003,09,02,13,41,25.40
2003,09,02,13,42,25.40
2003,09,02,13,43,25.40
2003,09,02,13,44,25.50
2003,09,02,13,45,25.60
2003,09,02,13,46,25.60
2003,09,02,13,47,25.60
2003,09,02,13,48,25.60
2003,09,02,13,49,25.60
2003,09,02,13,50,25.70
2003,09,02,13,51,25.70
2003,09,02,13,52,25.70
2003,09,02,13,53,25.80
2003,09,02,13,54,25.80
2003,09,02,13,55,25.90
2003,09,02,13,56,25.90
2003,09,02,13,57,26.00
2003,09,02,13,58,26.00
2003,09,02,13,59,25.90
2003,09,02,14,00,26.00
2003,09,02,14,01,26.00
2003,09,02,14,02,26.10
2003,09,02,14,03,26.20
2003,09,02,14,04,26.20
2003,09,02,14,05,26.20
2003,09,02,14,06,26.00
2003,09,02,14,07,25.90
2003,09,02,14,08,26.00
2003,09,02,14,09,26.00
2003,09,02,14,10,26.20
2003,09,02,14,11,26.20
2003,09,02,14,12,26.10
2003,09,02,14,13,26.10
2003,09,02,14,14,26.20
2003,09,02,14,15,26.20
2003,09,02,14,16,26.30
2003,09,02,14,17,26.40
2003,09,02,14,18,26.40
2003,09,02,14,19,26.40
2003,09,02,14,20,26.20
2003,09,02,14,21,26.10
2003,09,02,14,22,26.10
2003,09,02,14,23,26.20
2003,09,02,14,24,26.20
2003,09,02,14,25,26.20
2003,09,02,14,26,26.20
2003,09,02,14,27,26.10
2003,09,02,14,28,26.10
2003,09,02,14,29,26.10
2003,09,02,14,30,26.20
2003,09,02,14,31,26.20
2003,09,02,14,32,26.40
2003,09,02,14,33,26.50
2003,09,02,14,34,26.60
2003,09,02,14,35,26.70
2003,09,02,14,36,26.70
2003,09,02,14,37,26.60
2003,09,02,14,38,26.50
2003,09,02,14,39,26.30
2003,09,02,14,40,26.20
2003,09,02,14,41,26.20
2003,09,02,14,42,26.20
2003,09,02,14,43,26.10
2003,09,02,14,44,26.00
2003,09,02,14,45,25.80
2003,09,02,14,46,25.70
2003,09,02,14,47,25.60
2003,09,02,14,48,25.60
2003,09,02,14,49,25.60
2003,09,02,14,50,25.50
2003,09,02,14,51,25.50
2003,09,02,14,52,25.50
2003,09,02,14,53,25.60
2003,09,02,14,54,25.80
2003,09,02,14,55,25.80
2003,09,02,14,56,25.80
2003,09,02,14,57,25.80
2003,09,02,14,58,25.80
2003,09,02,14,59,25.90
2003,09,02,15,00,26.10
2003,09,02,15,01,26.10
2003,09,02,15,02,26.30
2003,09,02,15,03,26.40
2003,09,02,15,04,26.50
2003,09,02,15,05,26.60
2003,09,02,15,06,26.60
2003,09,02,15,07,26.70
2003,09,02,15,08,26.70
2003,09,02,15,09,26.70
2003,09,02,15,10,26.70
2003,09,02,15,11,26.70
2003,09,02,15,12,26.60
2003,09,02,15,13,26.60
2003,09,02,15,14,26.60
2003,09,02,15,15,26.70
2003,09,02,15,16,26.70
2003,09,02,15,17,26.70
2003,09,02,15,18,26.70
2003,09,02,15,19,26.80
2003,09,02,15,20,26.80
2003,09,02,15,21,26.80
2003,09,02,15,22,26.80
2003,09,02,15,23,26.90
2003,09,02,15,24,27.00
2003,09,02,15,25,27.00
2003,09,02,15,26,27.10
2003,09,02,15,27,27.30
2003,09,02,15,28,27.30
2003,09,02,15,29,27.00
2003,09,02,15,30,26.80
2003,09,02,15,31,26.60
2003,09,02,15,32,26.50
2003,09,02,15,33,26.40
2003,09,02,15,34,26.50
2003,09,02,15,35,26.60
2003,09,02,15,36,26.60
2003,09,02,15,37,26.60
2003,09,02,15,38,26.60
2003,09,02,15,39,26.60
2003,09,02,15,40,26.60
2003,09,02,15,41,26.70
2003,09,02,15,42,26.80
2003,09,02,15,43,26.90
2003,09,02,15,44,27.00
2003,09,02,15,45,27.10
2003,09,02,15,46,27.10
2003,09,02,15,47,27.00
2003,09,02,15,48,27.00
2003,09,02,15,49,27.00
2003,09,02,15,50,27.00
2003,09,02,15,51,26.90
2003,09,02,15,52,26.90
2003,09,02,15,53,27.00
2003,09,02,15,54,27.10
2003,09,02,15,55,27.20
2003,09,02,15,56,27.30
2003,09,02,15,57,27.40
2003,09,02,15,58,27.50
2003,09,02,15,59,27.50
2003,09,02,16,00,27.60
2003,09,02,16,01,27.50
2003,09,02,16,02,27.50
2003,09,02,16,03,27.70
2003,09,02,16,04,27.70
2003,09,02,16,05,27.70
2003,09,02,16,06,27.60
2003,09,02,16,07,27.60
2003,09,02,16,08,27.60
2003,09,02,16,09,27.60
2003,09,02,16,10,27.60
2003,09,02,16,11,27.60
2003,09,02,16,12,27.70
2003,09,02,16,13,27.70
2003,09,02,16,14,27.70
2003,09,02,16,15,27.80
2003,09,02,16,16,27.90
2003,09,02,16,17,28.00
2003,09,02,16,18,28.10
2003,09,02,16,19,28.10
2003,09,02,16,20,28.10
2003,09,02,16,21,28.20
2003,09,02,16,22,28.10
2003,09,02,16,23,28.10
2003,09,02,16,24,28.10
2003,09,02,16,25,28.10
2003,09,02,16,26,28.00
2003,09,02,16,27,28.00
2003,09,02,16,28,28.00
2003,09,02,16,29,28.10
2003,09,02,16,30,28.10
2003,09,02,16,31,28.10
2003,09,02,16,32,28.00
2003,09,02,16,33,27.90
2003,09,02,16,34,27.90
2003,09,02,16,35,27.80
2003,09,02,16,36,27.80
2003,09,02,16,37,27.80
2003,09,02,16,38,27.80
2003,09,02,16,39,27.80
2003,09,02,16,40,27.80
2003,09,02,16,41,27.70
2003,09,02,16,42,27.60
2003,09,02,16,43,27.60
2003,09,02,16,44,27.60
2003,09,02,16,45,27.60
2003,09,02,16,46,27.60
2003,09,02,16,47,27.70
2003,09,02,16,48,27.70
2003,09,02,16,49,27.80
2003,09,02,16,50,27.80
2003,09,02,16,51,27.80
2003,09,02,16,52,27.70
2003,09,02,16,53,27.70
2003,09,02,16,54,27.60
2003,09,02,16,55,27.70
2003,09,02,16,56,27.70
2003,09,02,16,57,27.80
2003,09,02,16,58,27.80
2003,09,02,16,59,27.80
2003,09,02,17,00,27.80
2003,09,02,17,01,27.80
2003,09,02,17,02,27.80
2003,09,02,17,03,27.80
2003,09,02,17,04,27.70
2003,09,02,17,05,27.70
2003,09,02,17,06,27.60
2003,09,02,17,07,27.50
2003,09,02,17,08,27.40
2003,09,02,17,09,27.30
2003,09,02,17,10,27.30
2003,09,02,17,11,27.30
2003,09,02,17,12,27.20
2003,09,02,17,13,27.10
2003,09,02,17,14,27.20
2003,09,02,17,15,27.20
2003,09,02,17,16,27.20
2003,09,02,17,17,27.20
2003,09,02,17,18,27.20
2003,09,02,17,19,27.30